Regional Weather Roundup
Issued by NWS

Home | Current Version | Previous Version | Graphics & Text | Print | Product List | Glossary On
Versions: 1 2 3 4 5 6 7 8 9 10 11 12 13 14 15 16 17 18 19 20 21 22 23 24 25 26 27 28 29 30 31 32 33 34 35 36 37 38 39 40 41 42 43 44 45 46 47 48 49 50
000
ASUS44 KMEG 240500
RWRTN
TENNESSEE HOURLY STATE WEATHER ROUNDUP
NATIONAL WEATHER SERVICE MEMPHIS TN
1100 PM CST THU FEB 23 2017

TNZ002-004-019-021-049-052-054-088>092-240600-
WEST TENNESSEE

CITY           SKY/WX    TMP DP  RH WIND       PRES   REMARKS
MEMPHIS INTL   CLEAR     64  60  87 S12       29.68S
NWS MEMPHIS      N/A     63 N/A N/A MISG        N/A
JACKSON        CLEAR     64  58  80 S10G21    29.70F
UNION CITY     CLEAR     63  61  94 S10       29.66S
PARIS          CLEAR     61  55  82 S13       29.69F
$$

TNZ008-025-027-028-033-062-065-066-240600-
NORTH MIDDLE TENNESSEE

CITY           SKY/WX    TMP DP  RH WIND       PRES   REMARKS
NASHVILLE      PTCLDY    64  54  69 S13       29.76S
CLARKSVILLE    CLEAR     63  54  72 S7        29.71S
SMYRNA         PTCLDY    63  55  75 S7        29.77F
CROSSVILLE     PTCLDY    61  49  64 S7        29.85S
$$

TNZ061-075-076-078-094-096-097-240600-
SOUTH MIDDLE TENNESSEE

CITY           SKY/WX    TMP DP  RH WIND       PRES   REMARKS
TULLAHOMA      CLEAR     63  54  72 S10       29.81S
WINCHESTER     CLEAR     57  54  88 SE5       29.82S
MCMINNVILLE    CLEAR     63  54  72 S5        29.81S
COLUMBIA       CLEAR     63  63 100 S5        29.75S
SHELBYVILLE    CLEAR     64  57  77 S8        29.80R
$$

TNZ017-018-042-046-047-240600-
NORTHEAST TENNESSEE

CITY           SKY/WX    TMP DP  RH WIND       PRES   REMARKS
TRI CITIES     PTCLDY    53  48  83 CALM      29.88S
$$

TNZ012-013-036-069-073-074-240600-
CENTRAL EAST TENNESSEE

CITY           SKY/WX    TMP DP  RH WIND       PRES   REMARKS
KNOXVILLE      MOCLDY    60  53  77 S3        29.83S
OAK RIDGE      CLEAR     55  52  89 CALM      29.85S
GATLINBURG     CLEAR     52  50  93 CALM      29.84S
$$

TNZ083-085-099-240600-
SOUTHEAST TENNESSEE

CITY           SKY/WX    TMP DP  RH WIND       PRES   REMARKS
CHATTANOOGA    CLEAR     58  52  80 S3        29.84S
$$

SKY/WX REPORTED AS FAIR MEANS FEW OR NO CLOUDS BELOW
12 THOUSAND FEET.





USA.gov is the U.S. government's official web portal to all federal, state and local government web resources and services.